User: anonymous   Login
Location: Chagrin Falls Park
(41.4139°N, 81.3865°W)
Time: 20:42:02
(UTC+00:00)
Language:

STARLINK-2646 - Orbit

View from above orbital plane
View from above orbital plane
View from above satellite
View from above satellite

Ground track
Ground track

The orbit data is extracted from the following two-line orbital elements,

1 48642C 21044E   21295.45364597 -.00000867  00000-0 -58075-4 0  2958
2 48642  53.0527 100.8520 0001779  87.5771 357.0818 15.06399659    19
Epoch (UTC): 22 October 2021 10:53:15
Eccentricity: 0.0001779
inclination: 53.0527°
perigee height: 546 km
apogee height: 548 km
right ascension of ascending node: 100.8520°
argument of perigee: 87.5771°
revolutions per day: 15.06399659
mean anomaly at epoch: 357.0818°
orbit number at epoch: 1

The dashed part of the orbit path shows where the satellite is in the earth's shadow,  

DLR